Hourly Data Report for October 23, 2012

All times are specified in Local Standard Time (LST). Add 1 hour to adjust for Daylight Saving Time where and when it is observed.

ST LEONARD CS
NEW BRUNSWICK

47°09'28.050" N
67°49'55.014" W
245.00 m
810I001
71019
WIY

Download Data

Hourly Data (October 2012)
Hourly Data Report for October 23, 2012
Temp Definition
°C
Dew Point Temp Definition
°C
Rel Hum Definition
%
Wind Dir Definition
10's deg

Wind Spd Definition
km/h
Visibility Definition
km
Stn Press Definition
kPa
Hmdx Definition


Wind Chill Definition


Weather Definition


TIME
00:00 4.4 -0.9 68 31 17   98.00     LegendNANA
01:00 4.4 -0.9 68 30 13   98.07     LegendNANA
02:00 4.3 -0.8 69 30 19   98.12     LegendNANA
03:00 3.8 -1.0 71 30 19   98.14     LegendNANA
04:00 3.4 -0.8 74 30 15   98.17     LegendNANA
05:00 3.2 -0.8 75 30 15   98.22     LegendNANA
06:00 3.2 -1.1 73 30 15   98.28     LegendNANA
07:00 3.2 -1.2 73 31 13   98.34     LegendNANA
08:00 3.2 -1.1 73 31 9   98.43     LegendNANA
09:00 3.9 -1.1 70 30 19   98.46     LegendNANA
10:00 4.2 -1.0 69 30 17   98.50     LegendNANA
11:00 4.2 -1.1 68 30 20   98.50     LegendNANA
12:00 5.5 -1.0 63 31 20   98.48     LegendNANA
13:00 6.1 -1.0 60 32 19   98.44     LegendNANA
14:00 7.6 -0.8 55 30 26   98.43     LegendNANA
15:00 7.2 -1.3 55 32 26   98.43     LegendNANA
16:00 6.6 -1.7 55 32 20   98.47     LegendNANA
17:00 5.9 -1.3 60 31 17   98.55     LegendNANA
18:00 5.4 -1.6 61 31 20   98.64     LegendNANA
19:00 4.4 -1.4 66 31 20   98.70     LegendNANA
20:00 3.0 -1.5 72 31 7   98.74     LegendNANA
21:00 1.8 -1.8 77 30 6   98.78     LegendNANA
22:00 1.3 -1.8 80 32 6   98.81     LegendNANA
23:00 0.8 -2.1 81 32 6   98.78     LegendNANA

Notes on Data Quality.

Legend

  • E = Estimated
  • M = Missing
  • NA = Not Available
  • ‡ = Partner data that is not subject to review by the National Climate Archives
Date modified: